Location: Lynch Observatory
(39.9540°N, 75.1861°W)
Time: 20:23:20
(UTC-04:00)

DOVE 4 - Pass Details

Date: 01 May 2024
Orbit: 582 x 778 km, 97.7° (Epoch: 28 May)

Event Time Altitude Azimuth Distance (km) Brightness Sun altitude
Rises 21:50:50 0° 25° (NNE) 2,995 ? -19.6°
Reaches altitude 10° 21:53:18 10° 37° (NE) 2,112 ? -19.9°
Enters shadow 21:56:21 26° 76° (ENE) 1,347 ? -20.3°
